Regional Weather Roundup
Issued by NWS

Home | Current Version | Previous Version | Graphics & Text | Print | Product List | Glossary On
Versions: 1 2 3 4 5 6 7 8 9 10 11 12 13 14 15 16 17 18 19 20 21 22 23 24 25 26 27 28 29 30 31 32 33 34 35 36 37 38 39 40 41 42 43 44 45 46 47 48 49 50
000
ASUS43 KBIS 220020
RWRND

NORTH DAKOTA REGIONAL WEATHER ROUNDUP
NATIONAL WEATHER SERVICE BISMARCK ND
700 PM CDT THU AUG 21 2014

NOTE: "FAIR" INDICATES FEW OR NO CLOUDS BELOW 12,000 FEET WITH NO
SIGNIFICANT WEATHER AND/OR OBSTRUCTIONS TO VISIBILITY.


NDZ001>003-009>011-017-220100-
NORTHWEST NORTH DAKOTA

CITY           SKY/WX    TMP DP  RH WIND       PRES   REMARKS
WILLISTON      PTSUNNY   76  56  49 NE9       29.96S
6HR MIN TEMP:  66; 6HR MAX TEMP:  77;

MINOT          MOSUNNY   72  62  71 NW12      29.91R
MINOT AFB      MOSUNNY   73  64  73 N10       29.92R
$$

NDZ018>021-031>035-040>046-220100-
SOUTHWEST NORTH DAKOTA

CITY           SKY/WX    TMP DP  RH WIND       PRES   REMARKS
BISMARCK       SUNNY     80  62  54 NW14      29.91R
6HR MIN TEMP:  77; 6HR MAX TEMP:  84;

DICKINSON      MOSUNNY   71  60  68 N12       29.96R
GARRISON         N/A     78  59  51 NW9       29.92R
6HR MIN TEMP:  75; 6HR MAX TEMP:  79;

HETTINGER ARPT PTSUNNY   75  59  57 N10       29.96R
$$

NDZ004>008-012>016-024-026-027-054-220100-
NORTHEAST NORTH DAKOTA

CITY           SKY/WX    TMP DP  RH WIND       PRES   REMARKS
GRAND FORKS    CLOUDY    77  68  73 CALM      29.82R
GRND FRKS AFB  LGT RAIN  73  73 100 N5        29.84R FOG
DEVILS LAKE    SUNNY     73  64  73 N16       29.86R
$$

NDZ022-023-025-028>030-036>039-047>053-220100-
SOUTHEAST NORTH DAKOTA

CITY           SKY/WX    TMP DP  RH WIND       PRES   REMARKS
FARGO          MOSUNNY   77  70  79 E3        29.81S
6HR MIN TEMP:  74; 6HR MAX TEMP:  79; 6HR PCP: TRACE;

JAMESTOWN      MOSUNNY   78  68  71 N9        29.85R
$$




USA.gov is the U.S. government's official web portal to all federal, state and local government web resources and services.